N151ND KFYV-KAXX

Flight info

Callsign N151ND
Flight time N/A
Altitude 20000
Route TUL J98 MMB KENTO Q176 CIM
Aircraft B350/L-SBDFGRYZ/LB1

Departure

Time 2026-04-29 16:38
Airport Drake Field (KFYV)

Arrival

Time N/A
Airport Angel Fire Airport (KAXX)
Time Latitude Longitude Altitude Speed Heading
2026-04-29 16:17 36.00364 -94.17147 1249 ft 0 kts 343°
2026-04-29 16:34 36.00378 -94.17138 1252 ft 5 kts 72°
2026-04-29 16:34 36.00356 -94.17101 1255 ft 8 kts 142°
2026-04-29 16:34 36.00274 -94.17071 1248 ft 15 kts 166°
2026-04-29 16:34 36.00168 -94.17039 1250 ft 16 kts 167°
2026-04-29 16:35 36.00057 -94.17006 1246 ft 17 kts 166°
2026-04-29 16:35 35.99936 -94.16974 1259 ft 19 kts 170°
2026-04-29 16:35 35.99834 -94.16951 1244 ft 15 kts 169°
2026-04-29 16:35 35.99729 -94.16926 1251 ft 12 kts 165°
2026-04-29 16:36 35.99697 -94.16886 1250 ft 6 kts 95°
2026-04-29 16:36 35.99709 -94.16828 1249 ft 7 kts 64°
2026-04-29 16:36 35.99729 -94.16820 1249 ft 0 kts 349°
2026-04-29 16:37 35.99763 -94.16828 1247 ft 28 kts 349°
2026-04-29 16:37 36.00229 -94.16941 1256 ft 102 kts 349°
2026-04-29 16:37 36.00760 -94.17066 1281 ft 129 kts 352°
2026-04-29 16:38 36.02001 -94.17410 2047 ft 140 kts 348°
2026-04-29 16:38 36.02955 -94.17786 2596 ft 148 kts 346°
2026-04-29 16:38 36.03977 -94.18192 3144 ft 159 kts 347°
2026-04-29 16:38 36.05051 -94.18633 3794 ft 171 kts 341°
2026-04-29 16:39 36.05807 -94.19804 4529 ft 188 kts 287°
2026-04-29 16:39 36.05979 -94.21407 5151 ft 188 kts 279°
2026-04-29 16:39 36.06108 -94.23019 5742 ft 189 kts 281°
2026-04-29 16:39 36.06272 -94.24640 6249 ft 190 kts 280°
2026-04-29 16:40 36.06430 -94.26267 6782 ft 190 kts 278°
2026-04-29 16:40 36.06583 -94.27885 7359 ft 187 kts 278°
2026-04-29 16:40 36.06731 -94.29454 7951 ft 185 kts 276°
2026-04-29 16:40 36.06876 -94.31019 8561 ft 182 kts 276°
2026-04-29 16:41 36.07013 -94.32558 9215 ft 179 kts 275°
2026-04-29 16:41 36.07154 -94.34100 9787 ft 181 kts 275°
2026-04-29 16:41 36.07296 -94.35647 10325 ft 181 kts 275°
2026-04-29 16:41 36.07441 -94.37193 10861 ft 180 kts 274°
2026-04-29 16:42 36.07582 -94.38724 11406 ft 179 kts 274°
2026-04-29 16:42 36.07727 -94.40257 11954 ft 179 kts 274°
2026-04-29 16:42 36.07866 -94.41763 12513 ft 178 kts 274°
2026-04-29 16:42 36.08010 -94.43280 13077 ft 177 kts 274°
2026-04-29 16:43 36.08145 -94.44793 13631 ft 177 kts 274°
2026-04-29 16:43 36.08281 -94.46307 14160 ft 177 kts 274°
2026-04-29 16:43 36.08419 -94.47821 14650 ft 177 kts 274°
2026-04-29 16:43 36.08557 -94.49336 15154 ft 177 kts 274°
2026-04-29 16:44 36.08695 -94.50850 15649 ft 177 kts 274°
2026-04-29 16:44 36.08832 -94.52367 16142 ft 177 kts 274°
2026-04-29 16:44 36.08970 -94.53879 16632 ft 177 kts 274°
2026-04-29 16:44 36.09107 -94.55392 17132 ft 177 kts 274°
2026-04-29 16:45 36.09245 -94.56911 17617 ft 178 kts 274°
2026-04-29 16:45 36.09381 -94.58419 18091 ft 178 kts 274°
2026-04-29 16:45 36.09519 -94.59945 18551 ft 178 kts 274°
2026-04-29 16:45 36.09656 -94.61469 18960 ft 178 kts 274°
2026-04-29 16:46 36.09791 -94.62993 19382 ft 178 kts 274°
2026-04-29 16:46 36.09929 -94.64511 19798 ft 177 kts 274°
2026-04-29 16:46 36.10066 -94.66043 20085 ft 183 kts 273°
2026-04-29 16:46 36.10209 -94.67660 20121 ft 198 kts 274°
2026-04-29 16:47 36.10368 -94.69418 20140 ft 211 kts 274°
2026-04-29 16:47 36.10537 -94.71266 20141 ft 221 kts 274°
2026-04-29 16:47 36.10714 -94.73194 20146 ft 229 kts 274°
2026-04-29 16:47 36.10891 -94.75155 20146 ft 235 kts 274°
2026-04-29 16:48 36.11073 -94.77185 20143 ft 240 kts 274°
2026-04-29 16:48 36.11257 -94.79251 20139 ft 243 kts 274°
2026-04-29 16:48 36.11444 -94.81341 20140 ft 246 kts 274°
2026-04-29 16:48 36.11632 -94.83450 20138 ft 248 kts 274°
2026-04-29 16:49 36.11820 -94.85574 20135 ft 249 kts 274°
2026-04-29 16:49 36.12006 -94.87706 20130 ft 250 kts 274°
2026-04-29 16:49 36.12194 -94.89850 20139 ft 251 kts 274°
2026-04-29 16:49 36.12381 -94.91997 20139 ft 252 kts 274°
2026-04-29 16:50 36.12569 -94.94154 20135 ft 252 kts 274°
2026-04-29 16:50 36.12758 -94.96314 20133 ft 252 kts 274°
2026-04-29 16:50 36.12944 -94.98476 20133 ft 253 kts 274°
2026-04-29 16:50 36.13128 -95.00616 20134 ft 253 kts 274°
2026-04-29 16:51 36.13314 -95.02783 20131 ft 253 kts 274°
2026-04-29 16:51 36.13502 -95.04961 20133 ft 254 kts 274°
2026-04-29 16:51 36.13689 -95.07129 20133 ft 254 kts 274°
2026-04-29 16:51 36.13876 -95.09304 20134 ft 254 kts 274°
2026-04-29 16:52 36.14063 -95.11477 20139 ft 254 kts 274°
2026-04-29 16:52 36.14246 -95.13626 20139 ft 254 kts 274°
2026-04-29 16:52 36.14433 -95.15801 20143 ft 254 kts 274°
2026-04-29 16:52 36.14617 -95.17974 20148 ft 254 kts 274°
2026-04-29 16:53 36.14803 -95.20148 20146 ft 254 kts 274°
2026-04-29 16:53 36.14986 -95.22325 20150 ft 254 kts 274°
2026-04-29 16:53 36.15170 -95.24500 20149 ft 254 kts 274°
2026-04-29 16:53 36.15352 -95.26671 20154 ft 254 kts 274°
2026-04-29 16:54 36.15536 -95.28848 20152 ft 254 kts 274°
2026-04-29 16:54 36.15720 -95.31030 20154 ft 254 kts 274°
2026-04-29 16:54 36.15900 -95.33179 20154 ft 254 kts 274°
2026-04-29 16:54 36.16084 -95.35358 20156 ft 254 kts 274°
2026-04-29 16:55 36.16265 -95.37535 20161 ft 254 kts 274°
2026-04-29 16:55 36.16439 -95.39712 20158 ft 254 kts 273°
2026-04-29 16:55 36.16577 -95.41894 20158 ft 254 kts 272°
2026-04-29 16:55 36.16698 -95.44075 20160 ft 254 kts 272°
2026-04-29 16:56 36.16816 -95.46252 20160 ft 254 kts 272°
2026-04-29 16:56 36.16937 -95.48435 20161 ft 253 kts 272°
2026-04-29 16:56 36.17058 -95.50586 20159 ft 253 kts 272°
2026-04-29 16:56 36.17180 -95.52770 20163 ft 254 kts 272°
2026-04-29 16:57 36.17306 -95.54947 20159 ft 254 kts 272°
2026-04-29 16:57 36.17432 -95.57131 20162 ft 254 kts 272°
2026-04-29 16:57 36.17558 -95.59314 20159 ft 254 kts 272°
2026-04-29 16:57 36.17681 -95.61477 20157 ft 254 kts 272°
2026-04-29 16:58 36.17805 -95.63663 20155 ft 254 kts 272°
2026-04-29 16:58 36.17929 -95.65850 20157 ft 254 kts 272°
2026-04-29 16:58 36.18052 -95.68031 20167 ft 254 kts 272°
2026-04-29 16:58 36.18175 -95.70214 20166 ft 254 kts 272°
2026-04-29 16:59 36.18298 -95.72404 20167 ft 254 kts 272°
2026-04-29 16:59 36.18421 -95.74591 20175 ft 255 kts 272°
2026-04-29 16:59 36.18542 -95.76780 20175 ft 255 kts 272°
2026-04-29 16:59 36.18662 -95.78944 20172 ft 255 kts 272°
2026-04-29 17:00 36.18784 -95.81141 20175 ft 255 kts 272°
2026-04-29 17:00 36.18907 -95.83335 20171 ft 255 kts 272°
2026-04-29 17:00 36.19030 -95.85532 20173 ft 255 kts 272°
2026-04-29 17:00 36.19150 -95.87729 20174 ft 255 kts 272°
2026-04-29 17:01 36.19270 -95.89926 20171 ft 255 kts 272°
2026-04-29 17:01 36.19387 -95.92089 20169 ft 255 kts 272°
2026-04-29 17:01 36.19507 -95.94284 20168 ft 255 kts 272°
2026-04-29 17:01 36.19626 -95.96474 20172 ft 255 kts 272°
2026-04-29 17:02 36.19745 -95.98661 20163 ft 255 kts 272°
2026-04-29 17:02 36.19862 -96.00851 20162 ft 255 kts 272°
2026-04-29 17:02 36.19981 -96.03043 20172 ft 255 kts 272°
2026-04-29 17:02 36.20096 -96.05205 20168 ft 255 kts 272°
2026-04-29 17:03 36.20211 -96.07398 20168 ft 255 kts 272°
2026-04-29 17:03 36.20329 -96.09597 20169 ft 255 kts 272°
2026-04-29 17:03 36.20447 -96.11795 20171 ft 255 kts 272°
2026-04-29 17:03 36.20562 -96.13993 20171 ft 256 kts 272°
2026-04-29 17:04 36.20680 -96.16197 20175 ft 256 kts 272°
2026-04-29 17:04 36.20794 -96.18397 20174 ft 256 kts 272°
2026-04-29 17:04 36.20910 -96.20601 20172 ft 256 kts 272°
2026-04-29 17:04 36.21024 -96.22802 20175 ft 256 kts 272°
2026-04-29 17:05 36.21139 -96.25002 20171 ft 256 kts 272°
2026-04-29 17:05 36.21254 -96.27171 20176 ft 256 kts 271°
2026-04-29 17:05 36.21367 -96.29373 20172 ft 255 kts 271°
2026-04-29 17:05 36.21479 -96.31568 20177 ft 256 kts 271°
2026-04-29 17:06 36.21589 -96.33767 20175 ft 256 kts 271°
2026-04-29 17:06 36.21699 -96.35966 20178 ft 256 kts 271°
2026-04-29 17:06 36.21813 -96.38170 20176 ft 256 kts 271°
2026-04-29 17:06 36.21925 -96.40380 20172 ft 257 kts 272°
2026-04-29 17:07 36.22038 -96.42590 20171 ft 256 kts 271°
2026-04-29 17:07 36.22113 -96.44049 20171 ft 256 kts 271°
2026-04-29 17:07 36.22221 -96.46255 20172 ft 256 kts 271°
2026-04-29 17:07 36.22328 -96.48456 20174 ft 256 kts 271°
2026-04-29 17:08 36.22472 -96.51373 20172 ft 256 kts 271°
2026-04-29 17:08 36.22580 -96.53575 20172 ft 256 kts 271°
2026-04-29 17:08 36.22654 -96.55064 20165 ft 256 kts 271°
2026-04-29 17:08 36.22761 -96.57262 20168 ft 256 kts 271°
2026-04-29 17:09 36.22869 -96.59464 20165 ft 256 kts 271°
2026-04-29 17:09 36.22978 -96.61666 20165 ft 256 kts 271°